Tracking 27107 objects as of 21-Mar-2023
HD Live streaming from Space Station
objects crossing your sky now

USA 276

Track USA 276 now!
10-day predictions
USA 276 is classified as:


NORAD ID: 42689
Int'l Code: 2017-022A
Perigee: 373.2 km
Apogee: 376.2 km
Inclination: 50.0 °
Period: 91.9 minutes
Semi major axis: 6745 km
RCS: Unknown
Launch date: May 1, 2017
Source: United States (US)
Launch site: AIR FORCE EASTERN TEST RANGE (AFETR)
Your satellite tracking list
Your tracking list is empty




NASA's NSSDC Master Catalog

Two Line Element Set (TLE):
1 42689U 17022A   22193.82779864 0.00018000  00000-0  16528-3 0    06
2 42689  49.9967 119.2555 0002172 113.0682 246.9316 15.66976839    07
Source of the keplerian elements: McCants